Theta_e
288 286 282 283 286 287 284 284 285 284 284 283 283 282 282 282 284 286 286 287 286 288 287 288 288 288 290 292 293 293 293 292 291 289 289 289 288 288 288 288 288 288 289 292 292 293 294 294 295 296 297 297 298 300 300 300 300 302 305 307 310 314 318 319 319 318 318 318 318 319 319 319 319 320 320 320 321 321 321 320 320 321 320 319 318 318
286 284 283 280 285 286 286 283 282 284 283 283 283 282 282 282 283 287 287 287 286 286 286 288 287 288 290 292 292 292 291 290 289 288 288 288 288 287 287 287 287 288 290 291 291 292 293 293 294 295 296 297 296 298 299 299 300 301 303 305 308 312 315 318 319 319 317 317 318 319 319 319 320 319 318 318 320 320 320 320 320 319 320 319 317 317
283 282 285 285 285 281 280 281 282 285 285 283 283 282 281 284 284 287 286 286 286 286 286 287 286 288 290 290 291 290 289 289 289 289 288 287 286 286 286 286 287 287 288 289 290 291 292 293 294 294 295 296 297 298 299 300 300 300 301 303 306 310 313 316 318 319 318 318 319 319 320 320 320 321 320 319 319 319 320 319 319 318 319 318 317 317
282 278 283 284 282 283 282 279 280 280 281 283 283 282 282 283 282 281 287 287 286 285 283 285 284 286 289 289 288 289 290 288 289 289 289 288 286 286 285 286 286 286 287 288 289 290 291 292 292 293 293 295 296 298 299 299 299 299 300 300 302 305 309 313 316 316 318 318 319 320 320 321 321 320 319 319 319 318 318 317 318 318 318 318 317 316
283 287 284 280 282 285 286 282 283 282 283 281 282 282 281 282 283 282 283 285 286 286 286 284 282 283 285 284 286 289 289 288 289 290 289 289 288 287 287 287 287 286 287 287 288 289 290 290 291 292 293 294 295 297 299 299 299 299 299 299 300 302 305 309 312 316 318 318 316 317 319 318 318 318 317 316 316 317 316 316 316 317 318 317 317 316
283 283 283 284 282 282 284 283 283 285 282 280 280 283 284 282 282 283 283 282 281 281 281 282 276 278 283 285 286 288 288 287 288 288 288 288 286 285 285 285 286 287 288 287 288 289 289 290 291 292 292 293 294 296 298 299 299 298 299 299 299 301 302 305 309 313 316 316 315 315 313 313 314 313 313 312 313 314 314 315 317 318 318 317 317 316
282 283 284 285 283 282 282 282 283 284 281 281 283 282 283 282 282 281 281 281 277 275 282 283 277 274 283 283 285 287 285 286 286 286 287 287 285 284 284 285 285 286 286 288 288 289 288 289 289 290 291 292 293 296 298 298 298 297 298 298 298 299 300 303 305 309 312 315 316 316 315 314 314 313 314 317 317 316 317 318 318 317 317 317 316 315
284 285 282 282 283 282 281 281 283 283 282 281 282 282 283 282 282 282 281 280 279 283 285 282 282 276 276 282 285 284 283 283 282 283 284 286 284 283 284 284 285 286 287 287 287 288 288 288 289 289 290 291 293 295 297 296 296 296 296 297 297 298 298 301 303 305 307 310 314 315 316 314 313 314 315 316 317 318 315 316 317 317 316 316 316 315
283 283 282 282 281 279 281 283 284 283 283 281 284 283 282 282 282 282 280 280 280 278 276 279 281 275 276 281 283 284 281 280 279 281 282 283 284 283 284 285 285 286 287 287 287 287 287 287 288 289 289 291 293 295 295 295 295 295 295 296 296 296 297 298 300 301 303 306 309 312 314 315 314 315 315 316 317 317 317 315 316 316 315 315 315 315
284 283 284 283 281 281 282 282 280 283 281 282 283 283 282 281 281 281 278 278 278 274 273 277 280 274 275 280 279 280 279 278 279 280 281 282 283 283 284 285 285 286 286 287 287 287 287 288 288 289 289 290 292 294 294 294 294 294 294 294 295 295 296 297 298 300 302 303 305 309 312 313 314 315 315 316 316 316 317 315 314 314 314 314 314 314
282 284 287 284 282 283 280 282 281 283 284 283 282 281 282 281 280 279 278 275 272 270 273 279 278 276 269 277 276 279 279 280 279 280 281 282 283 284 285 285 285 285 286 286 286 287 287 288 288 288 288 289 291 292 293 293 293 293 294 294 294 295 296 296 297 298 300 302 304 306 310 312 313 314 315 314 313 315 315 315 314 313 313 313 313 314
283 282 285 285 285 284 283 283 283 283 283 281 278 278 278 276 276 276 266 270 266 268 274 274 275 275 267 272 278 281 282 282 280 278 279 280 281 282 283 284 285 285 286 286 286 286 287 287 287 287 287 288 289 291 291 291 292 292 293 293 293 294 295 296 296 297 298 300 302 305 307 310 312 313 313 313 313 313 313 314 314 314 313 312 313 313
279 281 282 284 288 285 282 280 281 282 280 279 277 278 272 267 269 264 266 263 266 270 273 276 276 271 272 277 278 281 279 279 280 280 280 281 281 282 283 284 285 286 286 286 286 286 286 286 286 286 286 287 287 289 290 291 291 292 292 293 293 293 294 295 296 296 297 298 300 302 305 308 310 312 313 314 314 314 312 313 313 314 313 312 311 311
275 277 280 282 284 284 282 278 277 277 277 275 278 273 265 265 262 263 265 266 268 271 276 273 274 270 275 278 280 281 279 279 280 281 282 282 281 282 283 284 285 285 286 286 286 286 286 286 286 286 286 286 287 288 289 290 290 291 291 292 292 293 294 295 295 295 296 296 297 299 301 305 309 310 312 313 314 315 314 314 313 313 313 312 311 311
271 270 279 281 280 282 281 279 279 277 276 275 278 276 269 266 265 261 263 262 263 267 271 274 269 265 269 275 280 278 280 280 282 283 283 283 282 283 284 284 284 285 285 285 285 285 286 286 286 286 286 286 286 287 288 289 290 290 291 291 292 292 294 294 294 295 295 295 296 297 299 301 304 308 310 312 314 316 314 314 314 314 314 313 313 312
275 274 278 282 282 279 279 281 281 278 274 277 277 277 271 269 273 265 265 263 262 266 266 266 270 274 275 280 279 279 280 281 282 282 281 281 282 283 283 283 283 284 284 285 285 285 285 286 287 286 286 286 286 286 287 288 289 290 290 291 291 292 293 294 294 294 295 295 296 296 297 299 300 303 306 309 312 314 315 315 314 314 314 314 314 313
275 274 280 282 280 277 278 279 279 279 266 275 274 268 272 277 276 268 267 269 266 265 267 273 272 275 277 278 278 278 279 280 281 280 280 281 282 282 282 282 283 283 283 284 284 284 285 286 287 287 286 286 286 286 286 287 289 289 290 290 291 292 293 294 294 294 294 295 295 295 296 297 298 299 301 304 307 312 314 314 314 314 314 315 315 313
272 274 280 280 279 282 278 278 278 279 278 273 267 272 277 279 276 265 259 261 263 261 263 270 267 270 270 266 276 277 277 278 279 278 280 280 281 281 281 282 282 282 283 284 284 285 285 286 286 287 287 287 286 286 286 287 289 289 290 290 290 291 292 293 294 294 294 294 294 295 295 296 297 297 298 300 302 308 313 313 313 313 314 314 314 313
278 270 277 278 279 281 279 279 278 279 278 275 273 278 269 261 262 269 262 257 258 259 263 266 269 269 271 270 274 274 275 276 277 278 279 279 280 280 280 281 281 282 283 283 283 284 285 285 286 286 286 287 286 286 286 287 288 289 289 290 291 291 292 293 294 293 294 294 294 295 295 295 296 296 296 298 299 303 310 311 312 313 314 314 314 312
279 268 273 276 276 278 277 273 267 271 276 277 275 274 277 271 268 261 266 261 264 263 262 262 266 265 271 271 274 274 276 276 277 277 278 279 280 280 280 280 281 281 282 282 283 284 284 285 285 285 285 285 285 285 285 286 287 288 289 289 290 291 292 293 293 293 292 293 294 294 295 295 295 295 295 296 297 299 307 311 311 311 312 313 313 313
273 278 266 275 276 276 272 275 271 273 268 271 271 271 270 268 272 270 269 261 261 258 257 260 261 265 273 276 276 276 277 277 277 277 278 279 279 279 280 280 280 281 282 282 283 283 284 284 284 285 285 285 285 285 285 285 286 287 288 289 289 290 291 292 292 292 292 293 293 293 293 294 294 294 295 295 295 296 300 310 309 311 311 311 312 312
266 273 268 274 272 271 272 275 275 275 275 273 272 271 270 265 261 261 260 270 259 260 255 258 259 268 274 278 278 277 278 278 278 278 278 278 279 279 280 280 281 281 282 282 283 283 284 284 284 285 285 285 285 284 284 285 286 286 287 288 289 290 291 291 292 292 292 292 293 293 293 293 294 294 294 294 294 295 297 306 309 310 310 310 311 312
273 271 271 268 272 272 275 276 278 276 276 276 273 271 274 272 269 259 260 259 264 268 267 267 264 266 278 277 277 278 278 278 279 278 277 278 278 279 280 281 281 282 282 282 283 283 283 284 284 284 284 284 284 284 284 284 285 286 287 288 289 289 290 291 292 292 292 292 292 292 293 293 293 293 293 293 293 294 295 299 308 309 309 310 310 310
281 261 261 271 272 274 272 274 276 276 275 273 273 274 273 272 272 268 266 269 267 268 265 265 264 268 276 276 277 278 278 279 279 278 277 278 279 279 280 280 281 281 282 282 283 283 283 283 283 284 284 284 285 285 285 285 285 286 287 288 289 289 290 291 291 292 292 292 292 292 292 292 293 293 293 292 292 293 294 295 303 307 307 307 309 310
266 270 268 262 264 268 270 272 273 273 273 272 271 273 274 274 273 271 270 270 263 267 267 264 259 264 274 277 278 278 277 277 277 278 278 277 278 279 280 280 281 281 281 282 282 282 283 283 282 283 283 284 284 285 285 285 285 285 286 288 288 289 290 290 291 291 291 291 291 291 291 291 292 292 292 292 292 292 293 294 298 306 307 307 305 305
270 269 265 261 261 261 262 263 263 263 268 271 273 272 274 273 271 267 261 265 264 267 268 262 262 270 274 276 276 276 276 276 277 278 278 279 279 279 279 280 281 281 281 282 282 282 281 282 282 282 282 282 282 283 285 285 285 285 286 287 288 289 289 290 290 291 291 291 290 291 291 291 291 291 291 292 292 292 293 293 295 303 305 307 305 305
265 272 271 269 265 264 268 269 272 275 271 268 270 272 272 272 272 270 268 265 263 265 264 266 267 269 271 273 274 274 275 275 275 276 277 278 279 279 280 281 281 281 281 281 281 281 281 279 276 275 275 276 277 278 280 281 283 285 286 287 288 288 289 289 289 290 290 290 290 290 290 290 291 291 291 291 291 292 292 292 293 298 302 303 305 303
269 267 271 271 271 271 272 271 272 274 270 271 271 271 273 272 270 266 263 263 269 265 262 270 271 268 269 272 273 274 275 275 276 276 277 278 279 279 280 281 282 280 280 280 280 279 277 276 274 273 274 274 275 276 278 280 280 281 284 286 287 288 288 288 289 289 289 290 289 289 290 290 290 291 291 291 291 291 291 292 292 296 301 301 303 303
271 264 269 272 271 273 273 273 273 272 272 272 272 272 271 272 271 267 267 269 269 264 263 269 270 268 270 272 274 274 275 275 276 277 278 279 279 280 280 278 278 278 278 278 278 275 275 273 272 272 272 273 274 274 275 277 277 279 280 283 285 287 287 288 287 288 288 289 289 289 290 290 290 291 291 290 291 290 291 291 292 294 298 298 302 302
272 268 271 272 269 272 272 273 274 272 271 271 272 272 273 272 271 271 270 271 270 268 270 271 270 270 272 273 274 275 277 277 277 278 279 279 279 278 277 277 277 277 277 276 274 273 272 272 271 271 272 271 271 272 272 273 273 273 274 277 279 280 283 286 287 287 287 288 288 289 289 289 289 290 290 290 289 290 290 290 291 292 294 297 298 301
273 268 275 272 267 268 271 273 272 272 270 269 271 272 272 272 271 271 271 271 271 270 271 270 269 269 274 276 275 277 277 278 277 277 278 278 277 276 276 276 276 276 275 273 272 271 271 271 271 271 271 271 271 271 272 272 272 272 272 274 276 278 280 282 283 286 286 287 288 288 289 289 289 289 289 289 289 289 289 289 290 291 292 295 297 297
276 268 273 269 262 264 270 270 271 271 270 269 269 270 271 270 268 269 267 270 268 267 269 269 266 268 273 276 276 276 276 276 276 277 277 276 276 276 275 276 275 274 272 272 271 271 271 270 270 270 270 270 270 271 271 271 271 271 271 272 273 274 276 279 280 281 282 283 285 287 287 288 288 288 288 288 288 288 288 289 289 290 291 293 295 296
275 270 263 262 263 265 270 270 268 268 267 264 265 270 271 272 272 272 272 272 272 272 268 265 267 273 274 276 274 275 275 276 276 277 275 275 276 276 276 275 273 272 271 271 270 270 269 269 269 269 269 269 270 270 270 270 270 270 271 271 272 273 273 274 275 278 280 281 282 284 285 287 287 287 287 288 288 288 288 288 289 289 291 292 294 295
274 273 264 271 264 264 268 268 269 263 257 260 272 275 273 271 271 269 269 271 273 273 271 273 273 274 275 274 274 274 275 275 275 275 276 275 275 276 275 274 272 271 270 270 270 269 269 269 268 269 268 268 269 269 270 270 270 271 272 272 272 272 272 273 274 276 278 279 281 282 284 285 286 287 287 288 288 288 288 288 288 289 291 292 293 294
273 272 266 271 263 263 265 265 261 258 259 271 275 275 275 274 273 271 272 272 273 273 273 273 273 274 274 275 275 276 276 276 275 274 275 277 277 275 273 272 271 270 269 268 268 268 268 268 268 267 267 268 268 269 269 270 271 271 272 272 272 272 272 273 273 275 276 278 280 281 282 284 285 286 287 288 288 288 288 288 288 289 291 292 292 293
271 270 268 268 266 264 264 260 258 258 268 273 274 275 276 274 273 270 270 272 272 273 273 272 273 274 275 276 276 277 275 274 274 276 277 278 276 274 271 270 270 269 268 267 267 267 267 267 266 266 267 268 268 268 269 269 271 271 271 272 272 272 272 272 272 273 274 277 279 281 283 284 285 286 287 288 288 288 287 288 288 288 290 291 292 294
275 274 270 262 271 261 261 258 263 269 269 271 270 271 272 270 270 268 265 270 274 274 273 273 274 275 276 276 276 274 273 273 272 274 278 276 274 273 271 270 270 268 268 267 267 266 267 267 267 267 267 267 268 268 269 270 270 271 271 271 272 272 272 272 272 273 274 276 279 282 284 285 286 287 287 287 287 287 287 287 288 289 291 290 291 292
277 271 272 266 264 266 260 258 261 258 256 265 272 274 274 274 273 274 270 268 275 273 274 274 274 275 275 275 273 272 272 270 269 271 275 275 273 271 271 270 269 268 267 266 266 267 266 266 267 267 267 267 267 268 270 271 271 271 271 271 272 272 272 272 272 273 274 275 277 280 284 286 286 287 287 287 287 287 287 288 288 289 290 290 291 291
277 277 274 269 265 262 261 261 259 256 259 270 271 274 275 274 275 272 266 265 273 273 276 276 274 274 274 273 271 271 269 266 267 270 273 272 271 270 268 268 267 267 266 266 266 265 265 266 266 266 266 266 266 268 269 270 271 271 271 271 272 272 272 272 272 273 274 276 278 279 283 286 287 287 287 287 287 288 287 288 288 289 290 290 291 291
272 272 270 267 264 263 262 260 259 261 264 270 272 274 275 274 274 269 260 259 272 275 276 275 273 273 273 272 270 269 267 263 266 269 271 270 270 269 268 266 265 265 265 266 265 265 266 266 265 265 265 265 266 267 268 270 271 271 271 271 272 272 272 272 273 274 275 276 278 280 281 284 286 286 287 287 287 288 288 288 288 289 290 290 292 292
266 265 267 265 267 267 268 263 265 266 273 275 274 275 274 274 273 260 259 267 274 276 276 273 273 273 272 270 269 266 269 270 270 270 270 269 268 267 267 267 266 266 265 265 264 267 265 265 265 264 264 265 266 267 267 268 269 269 270 271 271 271 272 273 274 274 275 276 277 278 280 283 286 286 287 287 287 287 288 288 288 289 289 289 291 291
268 267 267 269 265 264 265 263 263 266 273 275 276 275 274 269 260 262 272 275 275 274 273 273 272 272 270 268 268 267 268 269 269 268 268 267 266 266 265 265 265 265 265 265 266 265 264 264 264 264 264 265 266 266 267 267 267 267 269 270 271 272 274 274 274 275 275 276 277 279 279 280 283 286 286 286 287 287 287 288 288 288 289 290 290 289
268 266 263 264 268 268 266 259 261 259 267 275 274 273 274 265 268 274 274 275 272 271 272 272 272 271 269 267 267 267 267 267 266 266 266 266 265 264 264 264 263 263 263 263 263 264 264 263 263 263 264 264 265 266 266 266 266 266 267 267 269 272 274 274 275 275 276 277 278 279 280 280 282 284 286 286 287 287 287 288 288 288 288 289 289 289
275 264 265 269 271 258 262 259 261 270 272 275 275 269 271 276 276 274 273 274 273 272 271 270 269 269 268 266 266 266 266 265 265 265 265 265 265 264 264 264 264 263 263 263 264 264 264 263 263 263 263 264 265 265 266 265 265 266 266 266 269 270 273 275 275 276 277 278 279 280 281 281 283 284 285 286 286 287 287 288 288 288 289 289 289 289
276 272 273 267 273 267 263 269 275 274 274 275 277 276 276 275 274 272 272 272 271 271 269 268 268 268 267 266 265 265 264 265 264 265 264 263 263 263 263 263 263 263 263 263 263 264 263 263 262 262 262 263 264 264 265 265 265 264 264 266 268 268 269 271 273 274 277 279 280 280 282 283 284 284 285 286 286 286 287 287 288 288 288 288 289 289
275 276 276 275 273 277 276 276 277 277 277 277 278 277 275 272 272 270 270 270 271 270 269 267 267 266 266 265 263 263 264 264 263 263 263 263 263 263 264 263 263 263 263 263 263 263 263 263 262 262 261 262 263 264 264 264 264 263 264 266 266 267 268 270 270 271 273 278 281 281 281 281 282 283 285 286 287 287 288 288 288 288 289 289 289 289
277 276 275 273 275 271 267 276 276 276 276 275 276 275 272 271 271 271 270 270 269 268 267 267 266 265 265 264 263 263 263 263 262 262 262 262 262 263 263 262 262 262 262 262 262 263 262 262 261 261 261 261 262 263 263 263 263 264 264 265 265 266 267 268 269 270 272 275 280 283 283 283 283 284 285 286 287 287 288 288 289 289 289 289 289 289
272 278 274 275 274 272 272 275 275 276 276 276 276 276 274 271 271 271 271 269 268 268 267 266 264 263 264 262 263 262 262 262 261 261 261 261 262 262 262 262 262 262 262 262 263 263 262 261 261 260 260 261 262 262 262 262 262 263 264 264 265 266 266 267 268 269 271 273 276 280 285 285 285 285 286 286 287 287 287 288 289 289 289 289 289 289
276 277 269 274 273 275 276 277 277 277 276 276 274 272 271 271 271 270 268 267 267 266 265 265 264 264 263 263 263 262 260 260 261 261 260 260 261 261 261 262 262 262 262 262 262 262 261 261 260 260 260 261 261 261 261 262 262 263 263 264 264 265 265 265 267 268 270 272 275 278 282 285 286 286 287 287 287 287 288 288 288 289 289 290 291 291
276 273 276 274 270 270 271 274 275 268 269 273 272 271 270 270 269 267 267 265 265 264 264 262 263 263 262 262 261 261 259 259 260 260 259 259 260 260 261 261 261 261 261 262 262 262 261 261 261 260 260 260 261 261 261 261 262 262 263 264 264 264 264 264 265 267 269 272 275 278 281 284 286 287 287 287 287 287 287 288 289 290 290 290 290 290
275 276 275 273 271 270 275 276 275 276 275 276 273 270 270 268 266 265 265 264 264 264 263 262 260 260 260 261 261 260 259 259 260 260 259 259 259 260 260 260 260 261 261 261 260 260 260 260 260 260 260 260 260 260 260 260 261 262 262 263 263 263 263 264 265 267 269 272 275 278 280 283 285 286 287 287 287 287 287 287 288 290 291 291 290 290
Wind_Speed
1 9 2 0 3 6 4 2 3 2 3 2 1 1 8 9 13 2 5 2 6 9 8 15 22 26 27 18 15 13 13 10 9 10 9 9 9 9 11 12 12 14 12 10 9 11 13 14 14 13 12 13 15 16 17 17 16 14 12 12 12 11 11 9 9 9 9 11 7 9 14 14 11 10 12 12 13 13 12 12 12 13 12 10 10 10
6 8 2 5 2 3 3 2 2 1 1 1 6 4 9 6 12 10 9 3 5 8 12 14 21 30 27 17 13 12 9 7 11 10 9 9 9 9 12 12 12 9 7 12 15 17 16 17 18 16 14 14 17 17 17 17 16 14 12 11 13 11 9 11 11 11 10 9 11 11 9 8 11 12 11 10 12 13 13 15 14 13 12 12 10 9
8 6 2 2 1 3 3 2 1 1 2 3 3 4 6 8 6 12 2 2 4 8 13 16 19 28 26 14 12 5 6 7 10 10 8 9 10 11 11 11 11 13 14 14 14 14 15 17 18 16 16 15 12 13 13 13 14 15 13 10 10 11 11 10 11 10 11 10 11 13 12 11 9 9 10 10 8 10 12 12 13 13 12 13 12 11
7 4 3 2 3 2 1 3 2 2 1 2 7 5 8 5 7 13 15 12 5 4 5 10 12 22 20 6 6 5 9 7 8 9 9 8 11 11 10 9 10 13 16 16 15 15 15 15 15 17 17 17 15 15 15 15 15 12 13 13 12 11 12 11 13 11 12 13 14 12 14 13 13 11 10 12 12 8 9 13 13 11 12 13 13 15
7 9 0 4 2 2 2 2 3 3 7 2 2 4 5 7 7 3 11 16 16 2 6 5 13 19 14 9 12 5 11 12 8 10 10 8 6 5 4 8 10 10 12 15 15 15 16 17 16 16 17 16 15 14 15 14 14 12 15 15 15 11 11 11 13 14 12 10 11 10 13 12 12 7 7 8 9 12 12 9 9 11 14 16 16 15
8 3 1 1 2 4 2 5 1 1 6 5 3 2 4 6 8 11 11 15 13 12 5 8 12 16 15 8 14 8 11 10 7 11 8 8 9 12 13 10 8 8 8 11 11 12 12 12 12 14 16 17 16 17 14 13 14 15 15 16 15 13 12 11 13 14 13 10 10 10 11 12 11 13 10 11 10 10 12 13 12 15 15 14 14 12
3 1 2 0 3 3 3 0 3 1 3 1 2 1 2 4 3 6 11 10 11 13 4 10 6 19 16 11 8 4 11 8 6 8 4 5 7 9 9 8 8 10 12 13 12 12 13 13 12 12 12 13 14 15 15 14 16 16 15 16 16 14 13 13 12 13 12 12 11 13 14 16 14 11 12 11 10 10 13 15 15 13 13 13 14 13
0 2 3 4 4 2 3 2 1 3 1 3 3 1 1 2 7 8 6 5 9 5 12 5 8 10 17 4 3 5 8 8 8 7 6 6 6 8 7 6 6 7 10 12 12 12 11 11 11 13 13 13 14 14 14 14 14 17 17 17 17 14 14 13 13 13 12 12 13 13 14 14 15 14 13 12 11 10 9 11 14 12 11 12 13 13
1 2 3 4 3 3 2 2 2 1 1 2 5 3 5 4 6 5 3 9 7 5 12 4 5 3 7 2 9 13 5 9 9 8 8 10 8 8 8 4 4 6 9 11 12 14 15 14 14 13 13 13 14 14 14 15 15 14 16 16 17 18 16 14 16 15 15 12 13 13 12 13 13 15 13 11 12 12 12 11 11 13 13 12 12 14
0 1 1 3 1 1 3 1 1 2 4 4 4 2 3 3 4 3 3 7 8 3 12 3 3 5 13 11 7 4 8 7 8 9 7 11 9 8 10 10 7 9 10 10 11 10 11 11 12 12 11 12 12 12 13 14 14 14 15 17 18 19 16 15 16 16 18 17 14 12 12 14 14 12 13 13 14 14 13 14 11 10 12 13 13 13
3 4 4 4 1 2 2 1 2 5 1 3 2 7 9 7 2 2 2 1 5 7 2 5 2 3 12 8 2 4 2 3 3 7 10 14 12 11 12 13 11 14 15 16 17 15 14 11 11 11 13 12 12 11 12 14 14 13 14 16 18 18 16 17 18 17 18 17 16 14 13 14 15 16 14 14 14 13 15 16 15 12 11 11 13 13
5 2 2 0 2 1 2 2 2 1 2 1 5 4 8 7 5 4 2 2 1 9 4 1 3 6 12 4 7 6 5 3 4 9 11 13 12 11 13 13 13 13 15 17 17 16 15 17 15 12 12 12 12 11 12 12 12 12 12 14 18 19 19 18 18 20 19 17 17 17 15 15 14 14 13 15 18 16 15 17 17 15 12 11 12 13
5 2 1 4 2 4 1 4 3 3 7 13 7 7 6 6 6 6 2 5 5 11 6 7 10 12 7 13 4 10 6 4 0 10 11 11 10 10 12 17 17 17 19 20 20 19 17 16 16 16 16 15 14 12 12 12 11 11 11 13 14 17 18 18 17 18 20 18 18 18 19 16 13 13 13 15 17 16 14 13 15 16 15 14 13 12
5 1 3 3 3 2 3 4 5 7 6 4 3 1 4 4 3 7 7 4 7 9 9 3 7 10 11 5 4 6 3 7 8 15 14 15 20 23 22 21 20 19 19 19 17 17 17 17 16 15 14 14 13 13 12 12 11 11 11 12 13 15 15 15 16 16 18 19 18 19 18 19 15 13 12 13 15 17 15 13 14 14 16 17 16 14
1 4 1 1 1 2 4 5 4 5 1 0 3 2 4 5 1 7 2 5 7 14 22 14 6 4 6 5 5 3 3 8 16 17 15 15 14 16 18 19 18 17 17 17 17 17 17 17 17 15 15 14 13 14 12 10 10 10 10 11 13 14 15 16 15 14 16 15 17 18 18 18 17 15 14 13 14 15 17 15 16 15 15 14 14 15
4 5 2 1 2 3 4 2 2 2 4 3 2 3 4 3 3 5 4 3 5 15 15 5 5 7 8 0 4 6 8 16 17 14 8 12 14 17 18 17 17 17 17 18 18 18 18 17 16 15 15 15 14 14 13 13 11 9 10 11 11 12 13 13 14 13 11 12 13 17 18 19 19 16 15 14 13 14 16 17 18 18 18 16 15 14
2 4 1 2 4 4 1 1 1 3 1 2 3 2 4 2 2 3 6 5 1 4 13 5 12 11 3 14 5 14 16 19 15 10 12 17 19 19 19 19 19 19 19 18 18 18 20 18 16 15 15 16 16 14 14 15 13 12 11 11 12 12 12 13 12 11 10 10 13 15 16 17 19 20 19 17 19 19 17 15 16 17 18 17 16 16
3 7 3 6 0 1 2 3 3 5 5 4 1 3 4 2 6 5 4 5 3 6 8 4 17 19 11 10 6 17 18 18 14 11 17 20 20 21 19 20 20 21 21 20 19 19 19 18 18 17 16 17 18 18 16 16 15 12 11 11 11 11 13 13 12 11 9 11 13 14 15 16 17 17 18 18 19 18 18 16 16 15 15 17 16 16
3 6 2 2 5 3 1 3 4 3 5 4 6 2 4 3 5 5 5 3 3 8 8 7 16 15 3 9 10 17 19 16 13 16 20 22 20 19 19 20 20 20 20 19 20 19 20 20 19 19 19 20 19 20 17 15 14 13 12 12 11 13 13 14 12 11 10 9 8 10 12 14 16 16 17 18 19 21 19 15 13 18 21 19 18 16
1 3 4 0 3 3 1 3 2 2 4 2 3 4 1 5 3 1 1 2 2 12 4 14 7 15 5 5 13 17 15 13 14 18 19 18 20 17 17 17 17 19 18 20 20 21 22 23 23 21 21 20 21 21 18 16 13 15 15 13 13 13 13 13 13 12 11 10 8 10 11 12 12 14 15 16 18 20 21 19 15 13 16 19 17 17
1 3 5 2 7 4 5 1 1 4 1 1 6 1 4 0 3 5 3 8 5 5 4 5 15 11 5 9 13 15 12 12 16 19 15 17 20 19 19 18 18 18 19 20 22 23 25 25 26 25 22 19 18 17 16 14 15 15 14 14 15 15 15 13 13 12 11 9 9 10 12 13 13 15 14 16 18 18 21 18 16 14 12 14 17 17
1 1 6 1 5 3 4 3 1 3 8 7 7 4 6 1 4 4 10 2 2 1 3 2 15 20 5 5 10 7 11 15 16 16 18 20 21 19 17 17 20 20 19 21 23 22 23 24 27 27 23 19 18 18 18 17 15 15 15 15 15 14 13 13 13 11 11 9 8 10 11 12 12 12 12 15 17 19 19 19 15 16 14 13 15 17
3 1 0 8 6 5 4 4 2 3 4 8 8 2 3 3 5 2 5 4 5 5 2 9 11 20 5 3 4 7 14 15 14 16 17 18 20 18 19 18 18 22 23 22 20 21 22 21 23 23 24 24 23 21 20 18 15 16 16 16 15 15 15 13 14 12 11 10 9 10 10 10 12 12 14 14 15 18 19 20 15 14 17 17 15 15
4 2 1 7 3 2 6 3 6 6 4 1 2 5 2 3 5 6 6 5 8 10 7 6 13 17 5 2 5 11 13 12 13 15 18 18 18 18 19 23 24 24 23 22 20 20 18 20 20 22 23 24 23 19 20 18 16 16 15 15 15 16 17 14 12 12 11 10 10 9 10 10 10 12 13 13 14 16 19 20 17 12 13 13 14 17
1 3 5 4 6 1 6 5 2 1 2 1 3 4 5 5 4 6 4 4 2 9 11 8 13 14 6 7 13 13 13 13 16 15 13 19 19 20 22 25 21 22 22 22 24 23 25 24 22 19 20 23 24 22 19 18 16 15 16 15 15 16 16 14 11 11 12 11 11 10 9 9 9 11 13 13 13 16 18 19 19 13 14 13 13 13
2 3 3 2 6 10 12 8 6 5 2 3 3 5 8 6 3 4 2 1 6 7 11 5 11 15 17 15 17 17 17 15 15 15 14 17 20 22 24 23 24 19 19 28 28 27 28 26 21 20 22 22 24 26 24 21 17 15 15 16 15 16 15 14 12 11 12 11 10 11 10 9 8 10 12 13 14 15 15 17 19 14 12 16 14 15
1 1 3 7 7 9 10 6 2 3 4 5 11 13 17 5 2 2 1 3 7 9 11 12 15 21 19 17 19 21 18 19 20 16 18 20 24 23 21 22 21 26 28 28 26 25 24 23 26 27 24 22 21 20 22 23 23 18 16 17 16 15 15 14 12 12 11 11 10 11 11 9 9 9 10 11 13 13 13 15 18 16 12 12 16 16
2 1 6 6 10 10 7 9 6 1 4 4 8 17 16 11 6 3 4 9 6 7 17 10 15 16 18 18 20 21 19 16 15 17 20 20 22 21 22 25 30 32 32 25 21 18 23 27 20 24 26 23 21 21 21 21 20 21 19 18 16 15 14 12 12 12 12 11 11 10 11 10 8 8 9 10 12 13 13 14 15 16 13 11 13 15
4 2 6 5 10 8 8 10 10 7 3 5 11 18 17 13 11 9 8 10 5 6 15 19 19 18 19 17 18 19 18 18 19 19 18 21 18 19 25 31 35 33 31 29 21 23 26 21 25 27 25 24 24 23 23 20 21 21 20 20 18 17 17 15 14 13 12 12 11 11 10 9 8 7 8 9 11 13 13 13 14 15 13 12 15 15
4 4 5 3 5 3 5 8 6 8 3 4 14 17 14 13 14 13 13 12 9 12 18 19 20 20 18 18 16 17 18 20 19 15 17 20 22 25 27 28 30 29 26 24 26 24 22 25 25 28 29 26 25 24 22 20 18 19 22 22 21 22 22 20 17 16 13 11 11 10 10 9 8 8 8 9 11 12 13 13 13 14 12 13 12 15
6 5 6 2 1 3 6 7 4 6 5 5 16 16 13 14 12 12 10 10 7 12 17 18 18 19 13 11 15 17 18 19 18 19 16 19 22 29 28 28 27 24 27 25 28 29 26 24 23 22 24 27 27 27 24 23 21 20 19 19 21 21 21 22 22 15 11 11 11 11 10 8 8 9 10 10 10 10 12 13 13 13 12 12 13 12
3 4 3 2 2 4 3 5 5 4 5 10 17 16 13 12 9 7 5 4 3 12 16 14 13 13 12 12 14 17 21 22 24 19 13 20 28 29 27 25 27 27 29 30 29 25 28 31 31 27 27 27 27 26 25 25 25 23 21 21 21 21 23 23 23 24 24 21 16 14 13 11 10 10 11 10 10 11 11 11 13 13 12 12 13 13
2 3 1 2 2 5 2 4 2 3 5 8 12 10 11 9 10 11 8 7 10 10 10 11 13 12 16 15 17 20 19 24 23 19 21 22 20 21 23 26 26 29 31 36 35 32 28 27 30 30 28 27 26 26 27 26 25 24 21 22 20 20 21 22 23 23 21 21 17 20 17 14 12 11 11 10 10 10 10 12 14 13 12 13 12 12
3 4 2 2 3 4 2 3 3 1 4 6 3 6 6 8 9 11 11 8 10 6 9 11 14 15 15 14 16 18 22 21 21 19 17 18 20 17 21 23 26 27 29 27 25 26 28 29 25 26 27 27 28 27 27 25 24 26 24 21 23 20 20 21 22 22 20 20 18 19 17 18 15 14 13 10 9 9 10 12 14 13 11 11 11 13
4 4 2 2 3 5 4 6 2 5 10 4 3 5 8 7 6 11 15 8 9 12 12 15 15 13 15 15 15 18 19 22 26 23 17 16 16 19 22 26 26 26 29 30 34 32 27 25 29 31 29 26 26 25 25 28 25 23 24 21 19 19 21 20 22 19 20 20 19 17 16 19 16 15 14 11 10 9 10 11 13 13 10 9 11 13
4 6 3 1 3 4 2 1 3 7 2 10 11 9 5 2 6 4 13 6 8 8 10 13 13 15 17 17 17 15 19 27 28 26 18 14 13 15 19 21 27 32 33 29 27 31 30 31 33 30 29 26 26 26 25 25 25 25 22 21 20 20 20 22 22 23 22 20 20 18 18 16 15 15 14 11 10 10 10 10 11 12 9 9 9 11
7 3 4 0 4 5 4 4 9 8 13 7 3 3 1 3 2 2 10 13 5 8 7 9 16 18 18 17 18 18 20 22 22 26 29 27 26 24 21 19 20 24 25 30 30 31 32 31 30 28 27 28 27 28 27 26 22 22 22 18 18 20 18 18 21 21 21 22 20 16 15 14 15 15 12 10 11 11 9 10 10 10 8 9 10 10
7 8 4 5 4 6 4 4 6 5 3 8 3 1 2 2 3 2 2 14 4 5 3 10 16 17 18 17 19 21 19 20 17 17 25 31 30 28 29 28 24 24 30 29 30 33 31 26 25 26 25 27 28 28 26 25 23 23 22 20 18 17 18 17 19 19 20 20 19 19 16 15 13 12 10 9 11 11 9 8 8 9 8 9 10 11
5 4 4 3 3 3 2 3 3 3 10 8 6 5 4 4 1 2 1 12 3 1 7 8 15 16 16 17 20 19 18 17 16 17 18 29 30 29 32 34 32 27 26 28 30 31 30 29 28 27 26 26 27 28 29 28 25 22 21 20 21 17 19 18 18 18 18 19 18 18 17 12 10 10 9 9 10 10 10 9 8 9 8 9 9 10
6 4 3 6 5 5 3 3 7 4 7 6 3 6 7 2 4 4 7 6 3 12 10 9 13 17 16 16 14 15 14 18 17 16 22 27 27 30 25 29 31 32 33 35 31 27 27 25 27 27 27 27 27 27 28 27 23 23 23 21 15 17 19 19 19 19 18 18 17 16 17 16 11 9 9 10 10 10 10 8 7 7 8 9 9 9
3 2 5 13 9 8 10 6 3 7 10 10 11 11 3 1 1 1 7 8 5 10 11 7 11 14 12 13 11 12 16 11 15 20 23 25 27 29 30 32 28 27 28 29 31 33 29 27 23 24 25 24 26 25 25 23 23 24 23 20 19 20 19 20 19 18 17 16 16 15 16 13 10 11 10 9 9 10 10 7 6 7 8 9 9 9
2 3 4 4 7 9 6 6 6 7 13 10 11 5 2 4 2 9 5 3 5 6 8 8 11 11 11 10 9 10 15 16 15 18 20 22 23 25 28 30 32 31 27 24 25 25 25 25 27 27 26 23 24 23 21 21 24 25 24 22 21 22 20 20 18 16 16 16 15 15 14 16 15 12 10 10 9 10 11 9 6 7 8 8 9 11
9 6 6 6 3 3 3 2 4 6 6 6 7 2 3 5 7 4 5 6 1 1 5 11 9 9 6 11 12 14 18 17 17 19 19 19 22 24 29 32 31 30 30 30 31 29 28 27 26 27 26 24 23 21 19 22 25 23 22 22 26 23 20 18 17 17 16 15 15 14 14 14 16 15 11 10 10 11 11 10 6 7 8 9 10 11
5 4 4 5 7 7 6 6 8 9 5 5 1 4 3 6 1 2 1 8 4 3 4 6 11 8 5 8 14 16 17 18 18 17 21 22 23 25 28 28 29 29 30 30 27 27 24 25 25 26 24 23 22 21 20 21 23 23 24 25 22 22 21 19 17 15 14 15 14 13 13 13 14 13 12 12 11 11 11 11 8 6 7 8 9 9
9 10 6 5 5 8 8 8 8 4 4 4 1 4 4 2 3 3 3 3 4 3 2 4 9 8 5 9 14 15 16 15 17 20 21 23 25 27 28 30 28 29 28 29 29 28 27 27 30 28 27 23 25 22 20 18 19 25 26 24 22 22 22 21 19 19 18 14 13 12 12 11 11 11 12 12 11 11 10 11 9 7 6 7 8 9
5 3 1 2 5 7 6 10 9 9 10 11 8 1 4 5 3 5 3 1 2 1 0 5 7 9 9 8 11 14 12 16 20 22 22 24 23 23 26 28 28 28 28 28 24 23 21 23 24 25 27 27 25 22 19 18 18 24 24 23 22 21 20 20 21 20 19 17 12 12 11 12 13 13 14 14 11 11 10 10 9 8 7 8 9 9
6 3 3 6 4 3 6 5 7 10 5 4 6 2 4 3 4 2 1 1 2 2 3 4 5 7 9 8 10 15 18 17 19 20 21 19 20 22 25 27 27 27 26 26 27 26 23 23 24 27 29 29 26 22 21 21 20 19 21 22 22 21 19 20 20 20 18 16 14 11 10 11 10 10 11 11 11 10 10 9 9 8 8 8 9 10
7 5 5 10 12 9 13 8 4 5 4 4 6 9 4 4 3 1 2 2 2 4 4 4 2 4 4 7 10 14 18 16 17 19 20 19 19 20 22 24 28 28 26 24 23 26 23 23 25 26 27 25 25 23 22 22 22 21 22 22 20 18 20 20 18 18 18 17 14 13 10 9 12 13 10 10 10 10 10 9 9 10 10 10 10 10
3 4 3 5 6 10 11 10 14 8 8 7 4 2 3 6 6 6 5 3 4 5 5 3 1 4 5 10 12 13 16 15 14 17 19 20 20 18 19 23 25 26 26 27 28 25 23 26 29 31 28 26 24 22 22 22 20 21 22 20 19 19 20 19 20 18 18 16 13 12 11 10 9 9 10 10 9 10 10 10 10 11 10 10 10 11
3 10 5 2 7 11 10 10 2 3 8 1 5 7 5 2 2 0 2 2 2 2 2 3 2 1 4 7 9 10 14 15 14 16 19 18 18 20 22 23 23 25 25 24 23 24 24 24 25 26 26 24 23 22 22 22 22 21 20 19 19 20 19 19 18 17 15 13 12 11 10 10 9 9 9 9 9 9 9 12 15 13 11 9 12 16
10 11 7 8 8 11 12 6 3 6 6 7 5 6 2 4 4 3 1 2 3 2 4 6 8 6 3 5 6 9 11 14 17 16 17 15 17 18 19 23 24 25 26 25 24 25 23 25 24 22 22 22 23 24 24 25 25 24 23 21 21 20 18 16 15 14 13 12 11 11 10 9 9 8 8 9 9 9 9 8 10 16 18 15 13 15
Wind_Direction
280 38 49 186 283 287 272 206 217 232 206 267 260 273 288 293 294 265 262 316 343 338 325 323 312 304 300 323 343 335 341 340 63 71 59 50 44 37 28 21 11 10 358 332 333 349 353 351 351 349 348 349 346 350 350 349 349 345 335 323 312 305 300 288 276 257 244 237 236 214 207 211 215 215 206 201 200 200 201 197 194 195 202 198 187 177
64 25 301 222 245 250 266 179 109 74 49 292 300 333 312 306 291 305 305 35 341 28 301 319 312 299 300 326 339 341 337 1 71 81 58 50 44 36 29 20 15 356 341 351 359 356 353 353 350 349 352 353 352 347 345 347 341 341 341 331 315 304 296 286 274 265 252 249 238 238 227 215 208 207 211 214 200 197 196 191 190 188 195 196 190 181
5 319 240 226 218 84 58 90 64 156 293 317 288 307 324 296 281 286 202 36 27 1 300 317 307 293 300 342 328 341 63 68 74 89 86 59 43 29 24 17 6 6 4 359 359 355 353 350 350 351 348 348 346 337 338 336 340 341 343 339 318 309 298 285 276 269 262 251 242 238 235 223 222 217 215 208 214 204 188 192 188 186 189 194 195 185
357 290 256 225 131 109 63 64 79 35 68 284 320 340 294 309 9 319 319 338 324 170 255 273 277 287 300 348 314 114 108 100 97 88 76 63 45 31 17 8 6 5 4 360 353 352 350 348 350 351 350 346 341 342 341 342 342 341 339 339 336 320 307 291 283 271 262 254 254 246 242 236 223 220 212 215 201 200 200 187 186 187 187 193 195 192
242 262 81 82 85 111 347 334 9 28 322 306 213 249 294 326 318 251 304 324 316 316 183 317 304 291 306 5 325 42 113 88 45 58 55 47 50 34 6 25 21 6 359 353 348 348 348 348 350 350 343 341 342 341 339 339 341 338 338 337 336 327 315 299 289 283 272 266 265 261 255 239 237 234 209 217 216 196 187 183 185 191 193 197 199 195
291 270 162 58 36 50 50 346 325 86 323 315 251 208 290 301 319 323 320 342 331 323 136 43 313 291 312 4 322 353 73 60 38 55 39 28 21 9 13 7 359 2 1 356 345 337 334 333 332 340 344 346 342 340 339 338 336 338 335 335 335 331 325 316 301 290 284 271 256 250 249 255 225 217 207 204 208 202 194 191 190 199 203 198 197 195
225 350 92 131 71 31 59 242 253 179 244 36 269 159 282 283 296 307 318 356 317 308 290 81 281 292 306 323 319 8 89 89 53 65 57 41 19 16 4 353 354 351 349 351 349 341 334 333 332 336 341 338 339 336 337 340 339 337 335 333 332 333 330 323 313 299 291 281 261 248 246 245 245 233 225 217 190 193 207 200 190 194 197 197 193 193
95 296 32 31 52 65 27 0 277 143 113 279 183 199 276 327 326 314 308 256 257 269 295 136 198 263 292 323 201 353 59 53 36 43 54 29 11 2 351 336 335 338 346 344 340 334 328 322 325 333 336 339 338 335 337 338 339 336 334 333 331 331 331 327 323 317 302 282 272 261 250 243 244 239 230 218 210 196 207 211 196 188 192 200 195 193
111 323 35 19 59 44 307 214 268 184 177 230 308 13 310 298 282 274 252 275 253 356 301 66 224 338 259 260 13 338 27 12 20 11 7 5 360 354 354 324 285 316 338 339 337 336 332 327 325 327 332 333 336 340 341 339 336 335 332 330 329 330 331 329 328 323 314 297 276 267 258 254 243 240 235 225 219 204 195 205 209 190 184 191 198 197
280 138 118 114 118 276 234 293 281 169 39 284 305 250 196 227 237 216 235 270 301 357 290 302 237 254 278 292 340 338 100 40 358 4 5 353 346 342 350 344 324 329 335 336 336 328 320 312 312 315 315 327 335 336 337 336 335 335 333 329 328 329 329 327 328 326 321 314 301 277 261 254 254 245 236 224 221 213 200 199 202 202 188 185 188 192
262 310 188 98 182 204 158 73 149 85 130 302 32 345 347 343 316 283 238 215 354 281 237 161 168 102 294 314 278 74 74 170 3 357 351 349 355 357 354 351 342 343 342 340 338 334 327 314 302 308 316 321 326 331 337 338 336 333 331 328 326 325 324 326 328 331 327 322 318 300 279 263 254 250 243 233 225 220 210 205 198 192 195 189 187 186
340 10 84 313 37 5 118 88 330 2 307 33 22 17 342 327 350 303 356 346 122 272 195 189 21 22 290 359 83 108 131 154 59 2 350 351 356 346 344 340 337 336 334 331 333 330 326 323 319 314 310 316 319 330 339 334 329 327 327 325 322 323 326 328 330 332 332 331 323 315 295 277 264 255 250 241 228 216 211 207 202 192 189 192 190 188
342 69 324 324 247 92 94 74 307 319 340 20 2 20 28 294 352 326 63 348 239 271 280 28 4 329 219 267 338 172 101 23 225 354 353 354 349 333 332 339 340 340 338 336 333 331 329 322 318 318 318 318 325 330 331 325 320 319 321 322 319 318 323 324 328 331 331 332 331 328 319 296 275 267 255 245 239 223 212 202 203 195 193 188 190 191
284 249 327 304 16 3 115 91 330 7 17 9 68 73 71 356 353 301 301 222 269 253 258 7 322 253 274 279 138 117 102 353 351 354 357 360 357 354 348 342 337 333 330 326 323 321 319 316 312 310 307 308 311 318 322 319 316 317 317 318 315 311 315 317 324 330 332 332 333 330 327 317 300 283 268 255 243 229 215 202 200 202 194 187 188 185
351 336 248 110 222 347 57 124 169 190 129 249 184 128 179 153 262 296 289 301 289 296 308 321 346 207 10 354 189 99 237 354 2 359 2 1 346 338 335 330 325 323 322 320 317 315 314 310 308 306 304 301 304 309 313 311 305 304 307 310 310 309 311 316 320 327 330 330 330 331 329 325 319 305 296 274 252 237 224 209 198 195 196 196 186 184
213 233 261 301 175 107 116 227 144 116 93 182 177 89 64 236 142 196 229 274 304 306 308 324 250 292 295 61 180 351 7 3 357 353 354 343 337 330 326 326 324 322 321 319 316 315 313 310 306 302 299 296 296 301 304 304 302 295 296 297 296 296 299 303 310 319 322 324 325 328 329 326 322 315 307 296 263 242 232 218 204 195 193 192 187 186
38 277 255 313 31 76 21 226 256 157 102 255 68 246 221 148 160 265 331 281 4 313 258 294 290 284 21 323 357 354 360 346 347 345 340 337 335 331 326 327 324 323 320 318 315 314 311 308 302 297 296 296 294 294 298 300 296 287 284 287 288 291 291 292 299 307 315 320 327 327 326 326 323 322 317 309 297 261 237 219 206 196 194 191 185 183
158 253 217 180 179 242 219 172 84 16 126 60 79 227 282 190 146 116 213 297 232 226 269 284 286 300 346 309 37 349 340 335 338 340 336 333 331 328 326 323 324 321 318 315 313 312 309 304 299 295 291 291 291 289 289 291 291 282 277 273 277 279 283 288 294 300 310 320 325 326 326 323 318 319 318 314 308 286 245 218 206 207 197 188 187 181
104 325 248 267 152 167 67 78 61 30 36 135 187 202 89 340 338 300 96 334 334 282 283 270 296 285 253 280 9 335 332 328 333 337 333 328 327 324 321 319 317 317 315 317 317 315 312 306 303 298 292 289 287 284 281 280 282 278 274 270 264 266 270 275 282 289 293 303 314 317 317 316 316 317 319 319 314 306 253 230 221 204 197 193 184 178
338 164 305 190 127 205 110 74 261 303 337 36 30 31 40 94 243 92 279 190 247 279 359 292 326 284 83 297 345 322 318 322 332 333 326 321 321 318 317 315 314 315 316 315 315 313 309 306 303 300 295 289 286 285 280 278 278 275 274 272 266 261 261 266 271 278 288 297 305 310 310 311 310 312 317 318 319 313 282 228 214 209 200 187 180 183
267 118 241 211 253 17 327 108 199 139 181 345 40 1 6 331 202 168 221 142 185 203 194 295 302 278 92 351 319 308 312 327 332 323 319 318 316 315 314 314 311 311 313 313 311 310 308 306 305 302 296 287 281 277 274 272 270 269 271 270 265 263 263 261 263 268 273 284 299 308 311 312 313 313 313 315 314 309 302 252 210 208 195 182 184 178
63 116 201 251 322 211 229 238 147 159 161 161 150 193 165 204 3 8 295 142 119 124 236 268 265 276 54 310 286 295 317 325 322 316 316 315 312 311 313 309 310 306 304 306 305 302 302 303 303 300 297 291 285 280 273 267 266 268 266 265 267 263 257 260 264 261 268 273 284 302 304 304 305 306 306 310 309 309 311 283 227 203 192 186 189 182
148 133 55 272 228 244 236 290 247 170 135 142 136 209 189 174 117 142 291 286 340 267 253 245 275 273 81 265 270 307 316 316 315 314 312 311 310 313 310 305 299 302 301 299 296 297 297 295 295 294 294 295 290 282 275 270 265 267 267 266 264 259 258 251 258 263 262 267 280 292 297 300 303 303 304 304 305 308 308 305 254 206 191 189 186 188
64 98 18 282 321 310 15 342 35 63 94 85 346 95 120 232 206 208 207 259 283 291 281 266 246 274 333 273 287 309 304 308 314 312 310 310 311 310 306 305 305 304 302 301 299 296 290 293 294 296 295 296 296 289 280 274 269 264 262 262 262 259 257 254 250 258 260 263 269 279 289 295 294 299 299 299 301 302 306 308 285 222 195 185 186 187
63 279 124 310 333 71 87 43 23 314 87 47 243 225 192 214 238 233 230 213 171 249 248 255 267 288 283 325 301 301 307 309 311 307 310 312 312 311 309 308 305 303 302 304 305 305 302 302 300 295 295 298 300 296 288 282 274 264 263 261 258 258 256 254 249 252 253 256 264 270 278 281 287 292 294 296 296 298 303 305 300 240 200 179 173 183
151 225 93 268 279 313 313 320 306 290 253 203 257 280 266 237 222 48 348 316 266 259 256 235 270 270 293 305 303 309 312 310 310 311 314 310 309 310 310 307 307 309 309 311 308 307 307 305 311 324 330 334 332 326 318 303 284 272 265 259 254 256 259 254 252 246 251 253 258 270 271 271 276 282 290 293 293 295 298 301 303 260 213 184 175 168
165 346 166 179 172 215 246 254 288 26 346 315 302 294 284 277 203 186 197 217 235 276 278 263 259 283 296 309 309 311 317 316 319 322 321 316 313 310 306 310 317 314 310 309 308 304 309 330 329 321 319 314 310 309 309 314 318 308 284 269 260 256 257 258 255 252 247 250 253 265 270 267 265 272 285 291 291 292 294 298 301 280 223 200 176 168
82 304 231 212 235 232 241 261 269 257 255 280 297 282 282 293 283 240 209 244 247 308 278 268 279 290 299 306 308 311 313 312 314 316 316 309 311 312 315 318 313 309 310 309 307 320 327 321 324 325 318 314 315 314 312 313 312 312 306 292 280 269 264 261 255 254 251 254 260 259 269 268 264 268 280 287 290 288 289 293 297 290 238 199 187 177
140 193 264 202 247 238 254 266 274 278 242 206 248 265 278 289 292 281 264 257 247 230 264 288 290 292 295 300 307 305 309 313 313 314 311 306 305 314 317 316 313 309 309 313 323 328 327 331 324 319 318 321 320 322 324 322 319 316 309 306 304 298 286 275 266 261 257 259 260 261 264 269 266 264 274 284 287 286 286 290 293 292 251 208 192 184
80 253 215 222 255 234 232 246 256 268 261 256 260 261 268 279 274 273 271 268 253 260 266 275 284 284 294 303 301 302 307 309 310 313 317 317 321 319 313 310 311 310 311 321 325 325 324 319 318 315 315 315 317 318 319 318 318 320 317 311 305 301 299 298 289 274 266 259 260 261 262 264 267 268 269 279 280 280 282 287 291 289 261 211 201 188
114 269 104 258 350 230 212 242 243 225 222 231 260 265 274 275 280 269 264 268 251 260 270 282 292 293 291 288 302 307 305 307 311 325 334 321 320 316 310 311 311 314 319 322 323 322 319 318 314 312 313 313 315 316 314 313 312 313 310 308 307 303 299 294 290 294 296 287 278 271 268 267 266 264 269 272 275 276 279 284 289 284 261 225 189 187
136 244 71 87 32 300 178 169 230 200 227 243 263 278 282 282 283 277 259 248 266 267 280 290 294 292 299 310 308 308 310 314 316 325 337 326 320 315 310 313 321 322 321 319 318 317 317 317 317 317 316 313 312 312 312 311 308 308 304 305 306 308 307 301 296 291 288 286 289 290 285 280 279 274 272 275 275 276 278 282 285 277 258 230 195 183
168 146 78 55 13 258 160 133 216 253 273 274 260 230 234 247 255 264 259 244 235 256 286 292 283 292 303 312 312 313 313 311 315 330 329 319 302 297 308 320 319 317 319 320 316 316 319 318 318 315 314 314 310 308 306 308 303 301 298 299 300 303 301 300 297 293 289 285 281 279 284 285 285 280 277 272 272 273 277 281 282 271 250 228 204 177
131 142 139 162 160 262 245 319 254 29 317 244 189 143 174 244 265 279 280 258 270 271 271 277 287 297 301 307 314 315 318 316 315 318 317 308 309 311 320 317 312 313 316 313 311 314 314 314 312 311 309 307 306 306 304 300 298 297 295 293 297 294 295 297 295 293 288 287 281 277 274 276 280 279 273 268 266 267 271 279 278 266 243 225 208 183
160 134 154 110 138 274 344 344 352 234 234 227 167 240 259 258 264 263 271 270 272 277 279 288 291 296 306 314 316 316 315 314 314 312 311 305 319 325 319 314 312 316 320 319 316 314 315 315 314 311 308 308 307 306 306 306 299 295 297 290 287 287 287 289 289 287 287 283 281 276 270 267 268 272 269 262 261 260 266 276 279 262 237 221 209 192
169 135 154 203 145 335 287 343 280 236 260 281 280 272 270 282 253 292 286 256 205 248 279 285 295 311 317 318 319 321 327 318 312 308 313 321 334 326 319 317 318 321 319 316 316 315 316 317 314 311 309 310 309 305 301 300 304 301 291 295 284 283 283 287 287 288 286 279 276 272 265 261 262 263 259 258 260 260 266 275 271 257 232 213 211 207
143 95 135 348 220 184 233 181 234 323 321 298 68 316 130 252 268 276 294 302 311 290 278 298 314 319 319 320 319 326 327 319 312 312 326 336 338 334 327 318 311 314 314 316 314 312 316 315 311 310 311 310 309 307 302 298 294 298 295 282 280 279 277 278 281 282 283 282 279 269 261 255 252 248 248 254 261 264 271 281 273 251 227 211 205 204
184 155 221 110 277 125 191 281 321 14 324 274 204 211 233 143 139 201 249 288 309 274 303 325 317 316 318 319 325 329 329 326 316 310 324 332 334 329 322 319 321 324 323 315 315 317 315 311 311 310 311 309 309 309 307 304 299 297 292 285 279 276 275 277 278 277 278 278 280 282 274 255 242 242 244 253 260 266 275 279 270 244 218 210 200 200
212 207 223 177 239 44 335 269 234 204 242 252 271 252 246 143 136 95 42 286 269 238 331 333 317 318 321 329 327 331 331 322 307 306 321 327 324 323 324 324 322 318 317 320 319 314 313 316 314 314 314 311 310 313 312 306 300 296 292 290 291 279 278 275 279 279 277 276 273 272 276 266 247 241 245 252 260 265 274 278 269 241 212 207 204 201
171 216 169 257 227 189 160 204 249 230 260 259 294 290 294 44 70 64 325 267 323 340 335 348 324 319 326 329 331 326 321 313 310 307 312 313 314 313 314 316 316 319 320 322 320 315 312 311 314 315 317 316 314 315 316 313 307 302 300 292 282 282 282 279 280 279 279 279 278 267 255 254 250 246 246 251 259 265 266 270 268 236 213 206 200 200
179 256 213 220 223 230 222 251 301 276 260 253 247 253 266 152 181 190 249 282 338 330 330 347 319 316 331 323 331 313 303 287 294 298 303 306 310 314 319 320 312 315 320 319 319 320 319 317 316 313 313 313 312 313 314 314 313 309 305 298 292 287 282 282 283 279 278 273 270 275 282 282 265 255 251 247 257 264 265 260 254 232 214 205 202 198
244 144 273 181 203 212 232 244 234 267 259 223 257 217 145 68 301 267 261 314 357 323 317 319 312 323 330 307 298 272 278 293 296 295 302 308 309 305 311 316 319 319 318 317 315 315 313 316 316 314 313 313 311 310 309 310 310 311 313 308 298 292 293 294 286 278 277 272 266 268 268 268 271 266 261 258 255 261 262 257 234 224 213 205 196 196
197 155 231 189 183 147 166 125 315 284 287 158 181 12 178 135 216 235 310 300 112 281 309 310 313 324 348 307 298 289 293 303 306 303 301 308 308 309 316 317 314 318 320 322 325 327 325 318 317 316 316 316 316 314 312 312 308 309 312 313 312 308 298 286 281 277 272 270 266 257 255 256 258 259 259 257 254 253 258 258 238 217 211 204 198 196
191 108 245 200 171 146 188 174 204 219 171 188 96 281 220 258 253 162 164 282 313 329 323 309 305 326 326 298 299 302 299 307 306 309 314 314 316 315 318 318 320 321 321 322 321 320 320 320 318 316 315 316 316 315 315 314 311 311 312 310 313 314 311 305 298 285 267 265 262 255 251 249 250 251 252 252 250 248 249 252 245 218 206 203 199 196
220 201 190 185 217 156 197 217 237 192 188 233 181 232 268 174 120 158 156 225 289 312 67 310 288 309 313 312 303 299 302 305 306 309 311 313 315 317 319 320 319 319 321 321 323 323 325 325 322 319 316 320 318 317 316 314 312 313 311 310 313 313 312 308 309 310 303 277 257 258 260 257 256 255 253 250 243 243 241 243 239 232 216 201 203 200
268 252 270 41 230 255 257 234 248 272 273 279 285 210 162 158 157 143 148 232 249 169 251 269 291 301 312 321 313 303 299 309 312 312 312 313 311 310 316 317 319 323 323 321 318 326 320 322 323 319 321 321 319 320 320 321 317 312 310 312 311 309 309 307 308 307 304 301 274 253 249 249 251 249 248 244 238 233 231 230 225 224 216 207 205 204
245 185 131 225 255 265 269 242 220 245 256 236 263 134 101 128 159 146 134 173 288 321 279 250 282 299 305 315 300 296 302 311 310 308 309 309 312 312 315 314 316 320 320 320 323 325 327 326 322 327 325 320 322 325 326 322 317 313 310 306 306 307 303 307 307 302 301 300 303 276 247 242 243 241 237 234 234 231 228 223 223 220 220 208 206 205
277 156 147 232 243 222 246 252 261 242 198 227 237 269 221 154 138 129 121 152 235 269 269 273 284 285 316 305 305 305 303 309 310 311 313 312 314 315 316 315 315 317 318 322 322 322 321 327 331 323 321 325 328 328 326 321 320 319 310 308 309 306 307 309 305 301 297 296 295 293 280 251 239 238 238 231 223 224 223 222 218 222 218 212 205 202
181 116 206 200 222 250 273 284 270 291 281 246 230 143 136 153 169 167 158 186 235 245 261 261 301 316 313 303 310 307 304 306 308 310 313 314 313 314 316 312 310 309 315 323 321 323 322 326 323 324 332 330 328 326 323 321 322 312 312 314 315 312 309 307 305 299 293 290 286 281 279 268 256 244 239 236 228 222 219 213 215 220 222 215 205 202
150 231 192 132 259 261 248 252 243 312 289 278 196 194 176 142 111 134 143 191 224 245 283 303 298 299 301 299 307 308 301 305 311 316 314 313 311 312 316 314 312 313 316 312 317 316 320 320 318 328 330 327 328 327 326 328 323 321 323 322 317 314 310 305 303 302 294 289 286 282 281 274 261 252 244 240 235 233 232 229 222 215 214 215 207 206
205 221 181 213 225 251 256 252 189 218 253 258 178 181 165 153 139 173 196 289 300 334 351 343 331 331 308 303 304 302 298 305 313 317 312 310 311 315 314 314 316 322 315 322 323 325 327 326 328 323 327 333 331 328 330 325 328 327 327 326 317 311 304 301 302 299 294 292 286 280 281 281 273 260 251 244 241 236 233 232 231 225 217 209 198 201